Weather in Leticia

Colombia     4°12′31″S   69°56′17″W
temp.,
°C
wind,
m/s
gust,
m/s
humid.,
%
clouds,
%
prec.,
mm/h
press.,
hPa
HPBL,
m
20 january, wed
wed2001:00+21s119999 0.3 101023
04:00+21ssw019999 0.2 101023
07:00+22n009899 0.2 101260
10:00+25wnw018887 0.1 1013370
13:00+29wnw116793 0.8 1009886
16:00+28nnw2272100 1.1 1007782
19:00+23n119584 3.9 100924
22:00+23sw129999 6.0 101153
21 january, thu
thu2101:00+22w149999 7.9 1010163
04:00+22wnw1599100 2.2 1010221
07:00+22w16100100 4.6 1011303
10:00+22sw15100100 6.0 1012316
13:00+23sw1598100 10.3 1010266
16:00+22ssw1699100 1.8 1008332
19:00+22ssw1499100 1.9 1009170
22:00+22se1199100 0.0 101123
22 january, fri
fri2201:00+22se1299100 0.0 101078
04:00+22e11100100 0.0 101029
07:00+23ene139996 0.0 1012198
10:00+25ene239393 1.6 1013510
13:00+26ene249372 7.3 1010654
16:00+25ssw0197100 1.9 100853
19:00+23ese019996 2.0 100923
22:00+23ene119999 1.1 101152
23 january, sat
sat2301:00+22nnw0110099 1.9 101035
04:00+22n11100100 2.3 101062
07:00+23ne119998 2.7 1012131
10:00+23ne249894 3.1 1014339
13:00+23ne139997 7.6 1012280
16:00+23nne1399100 1.4 1009309
19:00+22w1299100 1.4 101077
22:00+22wsw11100100 0.1 101227
24 january, sun
sun2401:00+21wsw14100100 0.1 1011177
04:00+21s00100100 0.0 101023
07:00+22w019999 0.0 101273
10:00+25ne0089100 0.1 1013324
13:00+24nne2387100 0.3 1010384
16:00+26nne127469 0.0 1006618
19:00+22nnw119462 0.0 100924
22:00+22n119290 0.0 101123